{"data":{"norad_id":52790,"epoch":"2026-05-25T03:22:20.362080Z","epoch_age_seconds":59062,"freshness":"FRESH","line1":"1 52790U 22058F   26145.14051345  .00001591  00000+0  22903-3 0  9995","line2":"2 52790  50.0061 309.2982 0033856  58.9056 301.5197 14.81273958216517","mean_motion":14.81273958,"eccentricity":0.0033856,"inclination_deg":50.0061,"raan_deg":309.2982,"arg_perigee_deg":58.9056,"mean_anomaly_deg":301.5197,"bstar":0.00022903,"rev_number":21651,"period_min":97.21361752314,"perigee_km":601.5948950099,"apogee_km":649.01660656403,"semimajor_km":7003.442750787,"source":"CELESTRAK","updated_at":"2026-05-25T13:37:57.889765Z"}}